Tracking 30692 objects as of 16-Jun-2025
HD Live streaming from Space Station
objects crossing your sky now

STARLINK-31184

Track STARLINK-31184 now!
10-day predictions
STARLINK-31184 is classified as:


NORAD ID: 58793
Int'l Code: 2024-012G
Perigee: 494.2 km
Apogee: 496.4 km
Inclination: 43.0 °
Period: 94.4 minutes
Semi major axis: 6866 km
RCS: Unknown
Launch date: January 15, 2024
Source: United States (US)
Launch site: AIR FORCE EASTERN TEST RANGE (AFETR)
Your satellite tracking list
Your tracking list is empty




NASA's NSSDC Master Catalog

Two Line Element Set (TLE):
1 58793U 24012G   25167.43586086  .00001523  00000-0  68109-4 0  9991
2 58793  43.0018 228.2541 0001635 267.2832  92.7832 15.25880204 80520
Source of the keplerian elements: AFSPC